SP1GDK-10 Weather Reports


Display with metric or nautical units.
time (UTC)temp
F
wind
direction
speed
MPH
gust
MPH
rain 1hr
in
rain 24hr
in
rain mn
in
humidity
%
barometer
mb
20221208061912 31 0.0 0.0 0.00 0.00 0.00 85 1007.3
20221208055913 31 0.0 0.0 0.00 0.00 0.00 85 1007.4
20221208054913 30 0.0 0.0 0.00 0.00 0.00 84 1007.4
20221208053912 30 0.0 0.0 0.00 0.00 0.00 84 1007.5
20221208052913 30 0.0 0.0 0.00 0.00 0.00 84 1007.4
20221208051913 30 0.0 0.0 0.00 0.00 0.00 84 1007.6
20221208050913 30 0.0 0.0 0.00 0.00 0.00 84 1007.7
20221208045914 30 0.0 0.0 0.00 0.00 0.00 83 1007.9
20221208044914 30 0.0 0.0 0.00 0.00 0.00 82 1007.9
20221208043912 30 0.0 0.0 0.00 0.00 0.00 82 1007.9
20221208041914 30 0.0 0.0 0.00 0.00 0.00 82 1008.3
20221208040912 30 0.0 0.0 0.00 0.00 0.00 81 1008.4
20221208035913 30 0.0 0.0 0.00 0.00 0.00 81 1008.5
20221208034912 30 0.0 0.0 0.00 0.00 0.00 82 1008.7
20221208033912 30 0.0 0.0 0.00 0.00 0.00 81 1008.7
20221208032913 30 0.0 0.0 0.00 0.00 0.00 82 1008.8
20221208031912 30 0.0 0.0 0.00 0.00 0.00 83 1008.8
20221208025912 30 0.0 0.0 0.00 0.00 0.00 83 1008.9
20221208024912 29 0.0 0.0 0.00 0.00 0.00 84 1009.0
20221208023913 29 0.0 0.0 0.00 0.00 0.00 84 1009.0
20221208022912 29 0.0 0.0 0.00 0.00 0.00 83 1008.9
20221208021911 29 0.0 0.0 0.00 0.00 0.00 83 1009.1
20221208015912 29 0.0 0.0 0.00 0.00 0.00 83 1009.2
20221208014914 29 0.0 0.0 0.00 0.00 0.00 83 1009.3
20221208013914 30 0.0 0.0 0.00 0.00 0.00 82 1009.2
20221208012913 30 0.0 0.0 0.00 0.00 0.00 82 1009.3
20221208011913 30 0.0 0.0 0.00 0.00 0.00 81 1009.3
20221208010913 30 0.0 0.0 0.00 0.00 0.00 81 1009.4
20221208005912 30 0.0 0.0 0.00 0.00 0.00 81 1009.4
20221208003912 31 0.0 0.0 0.00 0.00 0.00 81 1009.4
20221208002913 31 0.0 0.0 0.00 0.00 0.00 81 1009.3
20221208001913 31 0.0 0.0 0.00 0.00 0.00 81 1009.2
20221208000914 31 0.0 0.0 0.00 0.00 0.00 81 1009.3
20221207235914 31 0.0 0.0 0.00 0.00 0.00 81 1009.3
20221207234914 31 0.0 0.0 0.00 0.00 0.00 81 1009.3
20221207233914 30 0.0 0.0 0.00 0.00 0.00 81 1009.2
20221207232913 30 0.0 0.0 0.00 0.00 0.00 82 1009.3
20221207231913 31 0.0 0.0 0.00 0.00 0.00 81 1009.3
20221207230914 31 0.0 0.0 0.00 0.00 0.00 81 1009.2
20221207225915 31 0.0 0.0 0.00 0.00 0.00 81 1009.2
20221207224913 31 0.0 0.0 0.00 0.00 0.00 81 1009.1
20221207223913 31 0.0 0.0 0.00 0.00 0.00 80 1009.1
20221207222913 31 0.0 0.0 0.00 0.00 0.00 80 1009.2
20221207221913 31 0.0 0.0 0.00 0.00 0.00 81 1009.1
20221207220915 31 0.0 0.0 0.00 0.00 0.00 79 1009.1
20221207215914 31 0.0 0.0 0.00 0.00 0.00 79 1009.0
20221207213913 31 0.0 0.0 0.00 0.00 0.00 79 1008.7
20221207212914 32 0.0 0.0 0.00 0.00 0.00 79 1008.6
20221207211914 32 0.0 0.0 0.00 0.00 0.00 79 1008.5
20221207210912 32 0.0 0.0 0.00 0.00 0.00 78 1008.4
20221207205912 32 0.0 0.0 0.00 0.00 0.00 78 1008.4
20221207203914 32 0.0 0.0 0.00 0.00 0.00 79 1008.3
20221207202913 33 0.0 0.0 0.00 0.00 0.00 80 1008.4
20221207201914 33 0.0 0.0 0.00 0.00 0.00 81 1008.3
20221207200914 33 0.0 0.0 0.00 0.00 0.00 81 1008.2
20221207194912 33 0.0 0.0 0.00 0.00 0.00 79 1008.2
20221207192912 33 0.0 0.0 0.00 0.00 0.00 76 1008.1
20221207191912 33 0.0 0.0 0.00 0.00 0.00 75 1007.8
20221207190913 33 0.0 0.0 0.00 0.00 0.00 74 1007.8
20221207184912 34 0.0 0.0 0.00 0.00 0.00 74 1007.7
20221207183912 34 0.0 0.0 0.00 0.00 0.00 74 1007.5
20221207180912 34 0.0 0.0 0.00 0.00 0.00 73 1007.5
20221207175913 34 0.0 0.0 0.00 0.00 0.00 73 1007.6
20221207174914 34 0.0 0.0 0.00 0.00 0.00 73 1007.5
20221207173913 34 0.0 0.0 0.00 0.00 0.00 72 1007.5
20221207172914 34 0.0 0.0 0.00 0.00 0.00 71 1007.5
20221207171913 34 0.0 0.0 0.00 0.00 0.00 70 1007.5
20221207170911 34 0.0 0.0 0.00 0.00 0.00 70 1007.5
20221207163913 34 0.0 0.0 0.00 0.00 0.00 70 1007.8
20221207162914 34 0.0 0.0 0.00 0.00 0.00 71 1007.7
20221207161914 34 0.0 0.0 0.00 0.00 0.00 73 1007.7
20221207160914 34 0.0 0.0 0.00 0.00 0.00 74 1007.8
20221207155914 34 0.0 0.0 0.00 0.00 0.00 75 1007.8
20221207154913 34 0.0 0.0 0.00 0.00 0.00 76 1007.9
20221207153912 34 0.0 0.0 0.00 0.00 0.00 77 1008.0
20221207151913 34 0.0 0.0 0.00 0.00 0.00 78 1008.0
20221207150912 34 0.0 0.0 0.00 0.00 0.00 78 1008.1
20221207145912 34 0.0 0.0 0.00 0.00 0.00 78 1008.1
20221207144913 34 0.0 0.0 0.00 0.00 0.00 79 1008.2
20221207143913 34 0.0 0.0 0.00 0.00 0.00 77 1008.2
20221207142914 34 0.0 0.0 0.00 0.00 0.00 78 1008.2
20221207141913 34 0.0 0.0 0.00 0.00 0.00 77 1008.2
20221207140913 34 0.0 0.0 0.00 0.00 0.00 77 1008.1
20221207135913 34 0.0 0.0 0.00 0.00 0.00 74 1008.1
20221207134914 34 0.0 0.0 0.00 0.00 0.00 73 1008.0
20221207133914 35 0.0 0.0 0.00 0.00 0.00 74 1008.0
20221207132913 35 0.0 0.0 0.00 0.00 0.00 75 1008.0
20221207131913 35 0.0 0.0 0.00 0.00 0.00 76 1007.9
20221207130912 35 0.0 0.0 0.00 0.00 0.00 76 1007.9
20221207125913 35 0.0 0.0 0.00 0.00 0.00 77 1008.0
20221207124914 35 0.0 0.0 0.00 0.00 0.00 78 1008.0
20221207123912 36 0.0 0.0 0.00 0.00 0.00 77 1008.1
20221207121913 35 0.0 0.0 0.00 0.00 0.00 80 1008.2
20221207115913 35 0.0 0.0 0.00 0.00 0.00 81 1008.2
20221207114913 35 0.0 0.0 0.00 0.00 0.00 82 1008.2
20221207113913 35 0.0 0.0 0.00 0.00 0.00 82 1008.3
20221207111913 35 0.0 0.0 0.00 0.00 0.00 84 1008.5
20221207110914 35 0.0 0.0 0.00 0.00 0.00 86 1008.5
20221207105915 35 0.0 0.0 0.00 0.00 0.00 84 1008.5
20221207104914 34 0.0 0.0 0.00 0.00 0.00 85 1008.7
20221207103913 35 0.0 0.0 0.00 0.00 0.00 83 1008.6
20221207101915 34 0.0 0.0 0.00 0.00 0.00 85 1008.5
20221207100913 34 0.0 0.0 0.00 0.00 0.00 86 1008.5
20221207095913 34 0.0 0.0 0.00 0.00 0.00 86 1008.5
20221207094913 34 0.0 0.0 0.00 0.00 0.00 85 1008.4
20221207093913 34 0.0 0.0 0.00 0.00 0.00 86 1008.5
20221207092914 34 0.0 0.0 0.00 0.00 0.00 86 1008.6
20221207091913 34 0.0 0.0 0.00 0.00 0.00 89 1008.5
20221207090912 34 0.0 0.0 0.00 0.00 0.00 89 1008.5
20221207085913 34 0.0 0.0 0.00 0.00 0.00 90 1008.6
20221207084912 33 0.0 0.0 0.00 0.00 0.00 90 1008.7
20221207082914 34 0.0 0.0 0.00 0.00 0.00 89 1008.7
20221207081914 34 0.0 0.0 0.00 0.00 0.00 88 1008.7
20221207080912 34 0.0 0.0 0.00 0.00 0.00 86 1008.7
20221207075914 34 0.0 0.0 0.00 0.00 0.00 85 1008.7
20221207074919 35 0.0 0.0 0.00 0.00 0.00 85 1008.7
20221207072913 34 0.0 0.0 0.00 0.00 0.00 86 1008.7
20221207070915 34 0.0 0.0 0.00 0.00 0.00 86 1008.8
20221207065913 34 0.0 0.0 0.00 0.00 0.00 87 1008.9
20221207064912 34 0.0 0.0 0.00 0.00 0.00 85 1008.9
20221207063913 34 0.0 0.0 0.00 0.00 0.00 85 1008.9
20221207062914 34 0.0 0.0 0.00 0.00 0.00 85 1009.0